Tracking 28052 objects as of 25-Sep-2023
HD Live streaming from Space Station
objects crossing your sky now

FENGYUN 1C DEB

Track FENGYUN 1C DEB now!
10-day predictions


NORAD ID: 32316
Int'l Code: 1999-025CXH
Perigee: 748.1 km
Apogee: 796.3 km
Inclination: 99.5 °
Period: 100.1 minutes
Semi major axis: 7143 km
RCS: 0.0087 m2 (small)
Launch date: May 10, 1999
Source: People's Republic of China (PRC)
Launch site: Taiyaun Space Center, China (TSC)

Note: This is SATELLITE DEBRIS
Your satellite tracking list
Your tracking list is empty




NASA's NSSDC Master Catalog

Two Line Element Set (TLE):
1 32316U 99025CXH 23267.26203133  .00006024  00000-0  19934-2 0  9990
2 32316  99.5001 185.3040 0033792 191.3887 322.3374 14.38018876840724
Source of the keplerian elements: AFSPC